Weather in Morioka

Japan     39°42′07″N   141°08′54″E
temp.,
°C
wind,
m/s
gust,
m/s
humid.,
%
clouds,
%
prec.,
mm/h
press.,
hPa
HPBL,
m
12 may, wed
wed1200:00+4se11967 0.0 102112
03:00+3e11974 0.0 102212
06:00+6n11880 0.0 1022133
09:00+12wsw226015 0.0 10221005
12:00+16sw44468 0.0 10201485
15:00+16sw55455 0.0 10191593
18:00+11ssw3874100 0.0 1021542
21:00+6sse24937 0.0 102393
13 may, thu
thu1300:00+5sse239120 0.0 102260
03:00+5sse119613 0.0 102123
06:00+9ssw26862 0.0 1021336
09:00+16ssw58625 0.0 1018948
12:00+19ssw56485 0.0 10161351
15:00+20ssw45486 0.0 10141374
18:00+15ssw49736 0.1 1015615
21:00+10sse229563 0.1 101741
14 may, fri
fri1400:00+10sse119577 0.0 101625
03:00+11ssw119388 0.0 101556
06:00+12sw1192100 0.0 101571
09:00+12n1296100 0.9 1015119
12:00+12n1294100 2.7 1015212
15:00+17nnw126816 2.8 1014929
18:00+14nne11793 0.1 101412
21:00+10ene22915 0.1 101615
15 may, sat
sat1500:00+8e21905 0.0 101713
03:00+7ese21835 0.0 101814
06:00+10s1276100 0.0 1018102
09:00+16ssw3565100 0.0 1016703
12:00+20ssw555985 0.0 10151193
15:00+20ssw566392 0.0 1013937
18:00+17s487931 0.0 1014564
21:00+12s259822 0.0 1015119
16 may, sun
sun1600:00+12s269778 0.0 1013249
03:00+13s2496100 0.0 1012200
06:00+14s138969 0.0 1011189
09:00+21ssw236472 0.0 1009613
12:00+24sw555835 0.1 10061221
15:00+18ssw3886100 0.1 1005530
18:00+16s2692100 0.0 1005432
21:00+15s2598100 0.1 1004284